Location: La Fredeussais
(48.1780°N, 1.3980°W)
Time: 09:33:13
(UTC+00:00)

Cosmos 1515 Rocket - Pass Details

Date: 09 May 2021
Orbit: 605 x 631 km, 82.5° (Epoch: 13 June)

Event Time Altitude Azimuth Distance (km) Brightness Sun altitude
Exits shadow 21:34:01 25° 177° (S) 1,271 4.7 -16.4°
Maximum altitude 21:36:33 73° 97° (E) 653 3.5 -16.6°
Drops below altitude 10° 21:40:58 10° 13° (NNE) 1,993 6.7 -17.1°
Sets 21:43:11 0° 12° (NNE) 2,900 7.7 -17.3°
